FENGYUN 1C DEB

Satellite information

Favourite Embed

Satellite Type and Status

DEBRISIN ORBIT

Key statistics

Satellite FENGYUN 1C DEB at a glance.

Uptime

9610

Days in orbit

Revolutions

≈ 14.2

Per day

Orbit

SSO

Sun Synchronous Orbit

Inclination

99.1

Latest

Satellite identification and parameters

Extended collection of information and parameters for FENGYUN 1C DEB.

Object identification

Identified? True

Debris? True

Object name: FENGYUN 1C DEB

International designator: 1999-025AHN

Object number (NORAD): 30500

Object ID (CCSDS): 30500

Country: PEOPLES REPUBLIC OF CHINA (PRC)

Current information (Y/N): Y

RCS size: SMALL

Orbital parameters

Period: 101.159 minutes

Inclination: 99.0741 deg

SMA: 7191.659 km

Apoapsis: 860.708 km

Periapsis: 766.339 km

RAAN: 330.3548 deg

Eccentricy: 0.00656103

Argument of periapsis: 55.963 deg

Mean anomaly: 8.2865 deg

Mean motion: 14.23505576 rev/day

Mean motion (dot): 0.00006674 rev/day2

B* drag term: 0.0028876795 1/REarth

Two-line elements (TLE)

Creation date: Aug. 31, 2025, 2:26 a.m.

Reference frame: TEME

Reference center: EARTH

Epoch: Aug. 30, 2025, 5:42 a.m. UTC

TLE line 0: 0 FENGYUN 1C DEB

TLE line 1: 1 30500U 99025AHN 25242.23778506 .00006674 00000-0 28877-2 0 9993

TLE line 2: 2 30500 99.0741 330.3548 0065610 55.9630 8.2865 14.23505576951947

Live tracking on map

Real-time ground track for satellite FENGYUN 1C DEB.

In-orbit conjunctions

A list of the most updated potential collisions computed for object FENGYUN 1C DEB.

Target Orbit TCA Probability of collision Miss distance Type
CZ-6A DEB LEO 2025-03-12 16:30:43 0.0004918311 85.0 (m) DEBRIS
METEOR 2-12 DEB LEO 2025-02-06 23:16:31 0.0001360653 229.0 (m) DEBRIS
NOAA 12 SSO 2024-12-27 01:17:37 0.000101052 239.0 (m) PAYLOAD
COSMOS 2237 LEO 2024-10-11 01:28:15 0.0007142343 214.0 (m) PAYLOAD

Associated space launch

Chinese polar orbiting meteorological satellite

FENGYUN 1C DEB was lifted into orbit during the mission ‘Long March 4B | Feng Yun 1C’, on board a Long March 4B space rocket.

The launch took place on May 10, 1999, 1:33 a.m. from Launch Complex 7.

For more information about the launch, click the button.

Launch to space Long March 4B | Feng Yun 1C
Long March 4B | Feng Yun 1C

Agency: N/A

Status: Launch Successful

Launch date: May 10, 1999, 1:33 a.m. UTC

Rocket: Long March 4B

Launch pad: Launch Complex 7

Location: Taiyuan Satellite Launch Center, People's Republic of China

...

Latest news about this satellite

There are no fresh news available about this satellite. Check back as we update our databases every day.


Newsletter sign-up

Weekly statistics, charts and insights to help you stay on top of the space industry.